Zurück zum Katalog

CZ-6A DEB

AktivSSO
NORAD 56602·DEBRIS·🇨🇳 China

Gestartet Nov 11, 2022 von Taiyuan Satellite Launch Center

Loading…

Nächste Überflüge (nächste 24 Stunden)

TLE

AktuellSource: Space-Track

Epoche: Sep 14, 2026, 12:38 UTC

1 56602U 22151AEA 26257.52650982  .00004366  00000-0  15365-2 0  9990
2 56602  98.7803 280.3033 0028207 351.4516   8.6184 14.35160616184787

Verfolge CZ-6A DEB in Echtzeit mit AllMySat

Download on the App Store